www.pogodaiklimat.ru

Погода и климат >> Архив погоды >> Узбекистан >> Ташкент


АРХИВ ПОГОДЫ в Ташкенте

Время (UTC), дата Ветер
(напр.,м/с)
 
Видим.   Явления Облачность Т
(С)
Тd
(С)
f
(%)
Тe
(С)
Тes
(С)
Комфортность P
(гПа)
Po
(гПа)
Тmin
(С)
Tmax
(С)
R
(мм)
R24
(мм)
S
(см)
15 11.10 ЮЗ 1 10 км ясно +14.3 +6.7 60 +15 +15 по сезону 1021.7 964.6 +19.2
18 11.10 СВ 1 10 км ясно +10.9 +7.8 81 +11 +11 по сезону 1022.8 965.0 +19.2
21 11.10 СВ 1 10 км ясно +9.5 +7.4 87 +9 +9 по сезону 1021.7 963.6
00 12.10 С 1 10 км ясно +8.4 +6.8 90 +8 +8 по сезону 1021.1 962.9
03 12.10 СВ 1 4000 м дымка ясно +11.4 +6.2 70 +11 +12 прохладно 1020.4 962.8
06 12.10 штиль 0 10 км ясно +19.4 +4.8 38 +20 +30 тепло 1018.3 962.4
09 12.10 В 2 10 км ясно +20.5 +3.2 32 +22 +29 комфорт 1016.8 961.1
12 12.10 В 2 10 км 9/0
[Ci fib]
+19.7 +3.4 34 +21 +21 комфорт 1015.9 960.1
15 12.10 В 1 10 км 8/0
[Ci fib]
+16.0 +5.6 50 +17 +17 по сезону 1016.3 959.8 +21.5
18 12.10 В 1 10 км 4/0
[Ci fib]
+14.4 +5.0 53 +15 +15 тепло 1016.4 959.6 +21.5
21 12.10 В 1 10 км 8/0
[Ci]
+13.7 +3.8 51 +14 +14 тепло 1016.7 959.7
00 13.10 ЮВ 1 10 км 8/8
[Sc]
+13.4 +1.9 46 +14 +14 тепло 1017.0 959.9
03 13.10 ЮВ 1 10 км 9/9 1000 м
[Cb calv]
+14.6 +1.5 41 +15 +15 по сезону 1017.5 960.6
06 13.10 ЮЗ 1 10 км в посл. час ливневой дождь 9/9 600 м
[Sc]
+14.6 +4.1 49 +15 +16 прохладно 1019.8 962.8 +13.1
09 13.10 ЮЗ 2 10 км слабый ливневой дождь 9/9 600 м
[Cb calv]
+14.7 +2.3 43 +15 +15 холодно 1020.9 963.8
12 13.10 ЮЗ 2 10 км {ливн. осадки} 9/9 600 м
[Sc]
+12.3 -2.2 36 +12 +12 очень
холодно
1023.6 965.9
15 13.10 ЮЗ 1 10 км {ливн. осадки} 10/0
[Ac As]
+10.5 -7.1 28 +11 +11 прохладно 1026.5 968.3 +15.3
18 13.10 СЗ 1 10 км {ливн. осадки} 8/5 600 м
[Sc Ac lent]
+8.3 -5.7 37 +8 +8 прохладно 1027.0 968.2 +15.3 0.0
21 13.10 ЮЗ 1 10 км 9/5 600 м
[Sc Ac lent Ci]
+7.3 -4.1 44 +7 +7 прохладно 1026.7 967.8
00 14.10 штиль 0 10 км 4/0
[Ac lent]
+5.0 -1.9 61 +4 +4 прохладно 1027.5 968.1
03 14.10 СВ 1 10 км 9/0
[Ac lent Ci]
+6.3 +1.3 70 +5 +6 очень
холодно
1027.8 968.7
06 14.10 Ю 1 10 км 9/3 1000 м
[Sc Ac lent Ci fib]
+11.9 -4.7 31 +12 +16 холодно 1027.0 969.0 +4.3
09 14.10 В 1 10 км 9/3 1000 м
[Sc Ac lent Ci fib]
+13.7 -6.4 24 +14 +18 холодно 1024.8 967.3
12 14.10 ЮВ 1 10 км 9/0
[Ac lent Ci]
+13.4 -3.6 30 +14 +14 холодно 1023.0 965.5
15 14.10 В 1 10 км 10/4 600 м
[Sc Ac lent Ci]
+11.6 -1.7 40 +12 +12 прохладно 1022.7 964.9 +14.5
18 14.10 В 1 10 км 10/8 600 м
[Sc Ac lent]
+10.2 +1.9 56 +10 +10 по сезону 1021.0 963.1 +14.5
21 14.10 СВ 1 10 км 10/8 600 м
[Sc Ac lent]
+9.4 +2.7 63 +9 +9 по сезону 1019.1 961.1
00 15.10 В 1 10 км 10/10 600 м
[Sc]
+10.0 +1.3 55 +10 +10 по сезону 1017.7 960.0
03 15.10 Ю 1 10 км 10/10 600 м
[Sc]
+9.8 +1.9 58 +10 +10 прохладно 1016.8 959.0
06 15.10 СВ 3 10 км 9/8 1000 м
[Sc Ac lent]
+13.5 +4.1 53 +13 +13 холодно 1013.8 957.0 +9.0
09 15.10 ЮВ 3 10 км 10/10 1000 м
[Sc]
+14.9 +1.1 39 +14 +14 холодно 1012.6 956.0
12 15.10 ЮЗ 5 500 м слабый дождь {метель} 10/0
[As op]
+13.6 -2.2 33 +12 +12 очень
холодно
1014.6 957.6
15 15.10 З 3 10 км слабый дождь {метель} 10/0
[As op]
+6.0 +3.9 86 +3 +3 очень
холодно
1021.6 962.8 +15.7
18 15.10 СВ 1 10 км в посл. час дождь {метель} 9/8 600 м
[Sc Ac und]
+4.7 +0.8 76 +4 +4 холодно 1022.7 963.5 +15.7 3
21 15.10 10 км слабый дождь н/о +4.8 +0.4 73 +2 +2 холодно 1021.6 962.5
00 16.10 ЮЗ 1 4000 м дождь 10/0
[As op]
+4.0 +1.4 83 +3 +3 прохладно 1022.5 963.2
03 16.10 ЮЗ 2 10 км в посл. час дождь 10/10 600 м
[Sc]
+3.9 +2.1 88 +1 +1 очень
холодно
1022.6 963.3
06 16.10 Ю 2 10 км {дождь} 10/8 1000 м
[Sc Ac und]
+6.0 +1.8 74 +4 +4 очень
холодно
1024.3 965.2 +3.1 1
09 16.10 З 1 50 км 10/4 1000 м
[Sc Ac As]
+6.6 -2.8 51 +6 +8 очень
холодно
1024.3 965.3
12 16.10 СВ 1 10 км в посл. час дождь 10/10 600 м
[Sc As op]
+3.4 +0.8 83 +2 +2 очень
холодно
1026.9 967.2
15 16.10 З 1 4000 м дождь 10/10 100 м
[Frnb Ns]
+2.2 +1.2 93 0 0 очень
холодно
1029.2 969.2 +6.9
18 16.10 ЮЗ 1 10 км {снег, дождь} 10/10 200 м
[Frnb Ns]
+1.6 +0.8 94 -0 -0 очень
холодно
1031.1 970.8 +6.9 0.3
21 16.10 ЮЗ 1 10 км 10/8 300 м
[Sc Ac und]
+1.4 -0.3 88 -0 -0 очень
холодно
1032.4 972.0
00 17.10 штиль 0 10 км 9/9 600 м
[Sc]
+0.8 -0.3 92 -0 -0 очень
холодно
1034.5 973.8
03 17.10 штиль 0 10 км ясно +1.2 -0.5 88 0 +1 очень
холодно
1035.6 975.0
06 17.10 штиль 0 10 км 4/4 600 м
[Cu hum]
+5.8 -5.2 45 +6 +11 очень
холодно
1035.0 975.3 -0.7 2
09 17.10 ЮЗ 1 10 км 8/5 600 м
[Cu hum Ci fib]
+8.7 -4.1 40 +9 +12 очень
холодно
1033.0 974.0
12 17.10 З 1 50 км 1/0
[Ci fib]
+7.5 -4.7 42 +7 +8 очень
холодно
1032.2 973.0
15 17.10 СЗ 1 10 км 3/0
[Ci fib]
+3.2 -5.5 53 +2 +2 очень
холодно
1033.3 973.1 +9.2
18 17.10 С 1 10 км 3/0
[Ci fib]
+1.2 -4.8 64 -0 -0 очень
холодно
1032.7 972.2 +9.2
21 17.10 СВ 1 10 км ясно +1.0 -1.6 83 -1 -1 очень
холодно
1030.8 970.4
00 18.10 С 1 10 км ясно +1.5 -5.1 61 0 0 очень
холодно
1029.4 969.2
03 18.10 СВ 1 50 км 3/0
[Ac lent Ci fib]
+5.2 -6.6 42 +5 +5 очень
холодно
1027.4 968.0
06 18.10 СВ 1 50 км 9/0
[Cc]
+11.0 -9.4 23 +11 +18 холодно 1025.9 967.8 +0.3
09 18.10 ЮВ 1 50 км 8/0
[Ci]
+14.2 -6.7 23 +15 +21 прохладно 1024.0 966.6

 

Местоположение метеостанции Ташкент (Ташкентская область, Узбекистан): широта 41.27 долгота 69.27 высота над уровнем моря 466 м.

В архиве по умолчанию представлена погода в Ташкенте за последнюю неделю. Архивные данные за месяц целиком и за предыдущие месяцы, начиная с января 2011 года, Вы можете получить, выбрав интересующий диапазон дат из раскрывающегося списка и нажав кнопку "Ввод!".


*Определитесь, кто Вы:
робот инопланетянин человек

Внимание! Время в таблицах - всемирное. Для получения местного времени необходимо прибавить поправку, которая в Ташкенте равна 5 ч.

Смотрите также архив погоды в соседних городах и на ближайших метеорологических станциях:

Погода в Каунчи (Ташкентская область, Узбекистан) (31 км)
Погода в Туябугузе (Ташкентская область, Узбекистан) (37 км)
Погода в Келесе (Южно-Казахстанская область, Казахстан) (38 км)
Погода в Красноярской (Южно-Казахстанская область, Казахстан) (54 км)
Погода в Казыгурте (Южно-Казахстанская область, Казахстан) (55 км)
Погода в Дуканте (Ташкентская область, Узбекистан) (68 км)
Погода в Чимгане (Ташкентская область, Узбекистан) (70 км)
Погода в Сырдарье (Сырдарьинская область, Узбекистан) (70 км)
Погода в Ангрене (Ташкентская область, Узбекистан) (82 км)
Погода в Жетысае (Южно-Казахстанская область, Казахстан) (96 км)

Пояснения к столбцам:

Ветер - указаны скорость ветра в м/с - средняя за 10 мин, порывы в срок и между сроками (в фигурных скобках) и направление, откуда дует ветер: С - северный, СВ - северо-восточный, В - восточный, ЮВ - юго-восточный, Ю - южный, ЮЗ - юго-западный, З - западный, СЗ - северо-западный.
Видимость - горизонтальная дальность видимости в метрах или километрах. При видимости от 1 до 10 км при отсутствии осадков обычно наблюдается дымка, при ухудшении видимости до 1 км и менее - туман. В сухую погоду видимость может ухудшаться дымом, пылью или мглою.
Явления - указаны атмосферные явления, наблюдавшиеся в срок или в последний час перед сроком; фигурными скобками обозначены явления, наблюдавшиеся между сроками (за 1-3 часа до срока); квадратными скобками обозначены град или гололедные отложения с указанием их диаметра в мм.
Облачность - указаны через наклонную черту общая и нижняя облачность в баллах и высота нижней границы облаков в метрах; квадратными скобками обозначены формы облаков: Ci - перистые, Cs - перисто-слоистые, Cc - перисто-кучевые, Ac - высококучевые, As - высокослоистые, Sc - слоисто-кучевые, Ns - слоисто-дождевые, Cu - кучевые, Cb - кучево-дождевые. Подробнее классификацию облаков см. в Атласе облаков (PDF).
T - Температура воздуха - температура, измеренная на высоте 2 м над землей.
Td - Температура точки росы - температура, при понижении до которой содержащийся в воздухе водяной пар достигнет насыщения.
f - Относительная влажность воздуха - влажноcть воздуха, измеренная на высоте 2 м над землей.
Te - Эффективная температура - температура, которую ощущает одетый по сезону человек в тени. Характеристика душности погоды. При расчете учитывается влияние влажности воздуха и скорости ветра на теплоощущения человека.
Tes - Эффективная температура на солнце - температура, которую ощущает человек, с поправкой на солнечный нагрев. Характеристика знойности погоды. Зависит от высоты солнца над горизонтом, облачности и скорости ветра. Ночью, в пасмурную погоду, а также при ветре 12 м/с и более поправка равна нулю.
P - Атмосферное давление - приведенное к уровню моря атмосферное давление.
Po - Атмосферное давление - измеренное на уровне метеостанции атмосферное давление.
Tmin - Минимальная температура - минимум температуры воздуха на высоте 2 м над землей.
Tmax - Максимальная температура - максимум температуры воздуха на высоте 2 м над землей.
R - Количество осадков - Количество выпавших осадков за период времени, мм. При наведении курсора мыши на число - период времени, за который выпало указанное количество осадков.
R24 - Количество осадков - Количество выпавших осадков за 24 часа, мм.
S - Снежный покров - Высота снежного покрова, см. При наведении курсора мыши на число - состояние снежного покрова и степень покрытия местности в баллах.